STARLINK-35534, 66202

Orbit data source: Space-Track

STARLINK-35534, 66202 is a payload satellite owned by SpaceX/Seattle (US) in LEO that was launched on Sun, 26 Oct 2025 UTC via an FALCON 9 launch vehicle from the Air Force Eastern Test Range (AFETR). Payload-class satellites include a variety of spacecraft equipped with specific instruments for various scientific and technological missions. These include communications satellites like Starlink; space stations such as the ISS; scientific satellites like the Hubble; Earth observation satellites from companies like Planet Labs, Umbra, and HawkEye 360; GPS; miniature CubeSats for education and research; and military/defense satellites.

Loading next visibility...
Identifier
66202, 2025-243AB
Orbit
LEO
Country
Flag of USUS
Related business
Manufacturer
SpaceX/Seattle
Mission
Operational Commercial Communications
Bus & Motor
STARLINK V2MO, Unknown motor
Mass
575 kg wet, ~530 kg dry
Launch date (UTC)
2025-10-26 (8 months ago)
Launch vehicle
FALCON 9
Launch site
Air Force Eastern Test Range (AFETR)
Object type
Payload
Rocket body
Debris
Shape & HBR
Box + 2 Pan, 17.7 m
Radar Cross Section
36.964 m², Large (>1 m²)

Expand to show TLE details & history
Last TLE update: 2 days ago

TLE from 2 days ago
0 STARLINK-35534
1 66202U 25243AB  26170.31577934  .00015367  00000-0  52983-3 0  9999
2 66202  53.1579 133.1748 0001130  88.7621 271.3509 15.30202820 36214
Epoch: 2026-06-19T07:34Z
TLE epoch observation values (Epoch: 2026-06-19T07:34:43.334Z)
Latitude
-0.00006°
Longitude
111.94768°
Altitude
476.088 km
Speed
7.629 km/s
True Right ascension
08h 52m 41s
True Declination
0° 00' 00"
Sunlit
Object was in daylight at epoch
Visualization orbit readout
Latitude
Unknown
Longitude
Unknown
Altitude
Unknown
Speed
Unknown
Apparent Right ascension
Unknown
Apparent Declination
Unknown
Sunlit
N/A
Visualization observer readout
Local Sidereal Time
10:18:54
Azimuth
Unknown
Elevation
Unknown
Doppler factor
Unknown
Orbital elements
Apogee altitude
476.238 km
Perigee altitude
474.689 km
Semi-major axis
6,853.6 km
Eccentricity
0.00011
Inclination
53.1579°
RAAN
133.1748°
Arg. of periapsis
88.7621°
True anomaly
271.33795°
Mean anomaly
271.3509°
Eccentric anomaly
271.34443°
Mean motion
3.8253 °/min
Orbital period
94.11 mins
BSTAR
0.00052983
Loading maneuver chart data...
Computing Atmospheric mass density...
Loading historical data...
Loading historical data...
Loading historical data...
Loading historical data...
Loading historical data...
Loading historical data...
Loading historical data...

Documentation

Showing up to 5 results
|